Find Starlink 11594

NORAD ID: 64320 Int'l Des: 2025-124 Owner: SPXS Country: US Constellation: starlink operational
又名: STARLINK-11594 [DTC] celestrak
LEOCIRCULAR

当前视图

正在加载3D地球...

About Starlink 11594

Starlink 11594 (NORAD 64320) is a starlink constellation satellite (v2 mini d2c) launched Jun 10, 2025 by SPXS of US. It operates in LEO, CIRCULAR orbit with a mass of 960.00 kg.

即将过境

Passes for default location (London). Set your location on the main map for personalized predictions.

高度历史

Loading altitude history...

两行轨道根数

1 64320U 25124D 26252.59370677 .00126471 00000-0 97436-3 0 9993
2 64320 43.0003 1.0670 0000779 242.1254 117.9535 15.70835887 71757
Epoch: Sep 9, 2026 • Age: 26 hours

当前状态

高度 355.7 km
远地点 / 近地点 N/A
速度 7.70 km/s
星下点 -0.02°S, 121.99°E
发射日期 Jun 10, 2025
运行时间 1.2 years
类型 internet

技术详情

分类 Payload
质量 960.00 kg
干质量 910.00 kg
总质量 960.00 kg
长度 0.30 m
直径 4.10 m
跨度 29.00 m
形状 Box + pan
制造商 SPXS
平台类型 Starlink V2MD
阶段状态 In Orbit
所有者/国家 SPXS/US

Most Searched